Stations météo

réclame
Mon MeteoGroup
Luqa, Malte (16597): Température de l'air & dewpoint: 14.04.2018 22:00:00 - 20.04.2018 22:00:00 (CEST)Luqa, Malte (16597): Vitesse du vent: 14.04.2018 22:00:00 - 20.04.2018 22:00:00 (CEST)Luqa, Malte (16597): Direction du vent: 14.04.2018 22:00:00 - 20.04.2018 22:00:00 (CEST)Luqa, Malte (16597): reduced air pressure: 14.04.2018 22:00:00 - 20.04.2018 22:00:00 (CEST)Luqa, Malte (16597): visibility: 14.04.2018 22:00:00 - 20.04.2018 22:00:00 (CEST)
Date & Time tt [°C] td [°C] ff [km/h] ff [knt] dd ppp [hPa] vv [km]
20.04.2018 22:00:00 - - - - - - -
20.04.2018 21:00:00 18,0 13,0 15 8 N - 10
20.04.2018 20:00:00 18,0 11,9 15 8 N 1018,8 10
20.04.2018 19:00:00 19,0 12,0 15 8 N - 10
20.04.2018 18:00:00 20,0 12,0 11 6 NE - 10
20.04.2018 17:00:00 22,1 10,1 13 7 NNE 1018,1 10
20.04.2018 16:00:00 22,0 12,0 9 5 NNE - 10
20.04.2018 15:00:00 22,0 13,0 13 7 ENE - 10
20.04.2018 14:00:00 21,0 13,1 11 6 ENE 1019,7 10
20.04.2018 13:00:00 21,0 14,0 15 8 NE - 10
20.04.2018 12:00:00 20,0 14,0 18 10 ENE - 10
20.04.2018 11:00:00 19,6 14,5 21 11 ENE 1020,3 10
20.04.2018 10:00:00 19,0 14,0 21 11 NE - 10
20.04.2018 09:00:00 18,0 15,0 18 10 NE - 10
20.04.2018 08:00:00 16,2 15,9 18 10 NE 1019,0 10
20.04.2018 07:00:00 16,0 16,0 15 8 NE - 8
20.04.2018 06:00:00 16,0 15,0 16 9 NE - 6
20.04.2018 05:00:00 15,5 14,9 18 10 NE 1019,1 6
20.04.2018 04:00:00 16,0 15,0 15 8 NE - 6
20.04.2018 03:00:00 16,0 15,0 18 10 NE - 6
20.04.2018 02:00:00 15,9 15,6 15 8 NE 1020,7 6
20.04.2018 01:00:00 16,0 16,0 13 7 NE - 7
20.04.2018 00:00:00 16,0 15,0 16 9 NE - 7
19.04.2018 23:00:00 16,3 15,1 13 7 NE 1021,1 7
19.04.2018 22:00:00 16,0 15,0 15 8 ENE - 7
19.04.2018 21:00:00 16,0 15,0 13 7 ENE - 7
19.04.2018 20:00:00 16,6 14,9 15 8 ENE 1021,0 7
19.04.2018 19:00:00 17,0 14,0 18 10 NE - 8
19.04.2018 18:00:00 18,0 14,0 16 9 ENE - 10
19.04.2018 17:00:00 19,0 14,2 16 9 E 1021,0 10
19.04.2018 16:00:00 19,0 14,0 16 9 ENE - 10
19.04.2018 15:00:00 19,0 13,0 24 13 E - 10
19.04.2018 14:00:00 19,5 12,9 21 11 ENE 1021,9 10
19.04.2018 13:00:00 20,0 13,0 22 12 ENE - 10
19.04.2018 12:00:00 19,0 14,0 21 11 ENE - 8
19.04.2018 11:00:00 18,5 14,2 22 12 ENE 1022,4 8
19.04.2018 10:00:00 17,0 16,0 24 13 ENE - 6
19.04.2018 09:00:00 17,0 16,0 13 7 ENE - 5
19.04.2018 08:00:00 16,0 15,9 15 8 ENE 1021,8 5
19.04.2018 07:00:00 16,0 16,0 16 9 ENE - 3,5
19.04.2018 06:00:00 16,0 16,0 11 6 NE - 2,5
19.04.2018 05:00:00 15,7 15,7 9 5 ENE 1021,3 2,5
19.04.2018 04:00:00 16,0 16,0 13 7 ENE - 3,0
19.04.2018 03:00:00 16,0 16,0 9 5 ENE - 3,0
19.04.2018 02:00:00 15,7 15,1 8 4 ENE 1021,9 4,0
19.04.2018 01:00:00 15,0 14,0 9 5 NE - 9
19.04.2018 00:00:00 15,0 13,0 8 4 NNE - 10
18.04.2018 23:00:00 15,3 14,0 9 5 ENE 1022,1 10
18.04.2018 22:00:00 15,0 15,0 9 5 ENE - 10
18.04.2018 21:00:00 15,0 15,0 5 3 ESE - 9
18.04.2018 20:00:00 15,9 14,9 8 4 SE 1021,9 9
18.04.2018 19:00:00 16,0 15,0 9 5 S - 9
18.04.2018 18:00:00 17,0 14,0 5 3 E - 10
18.04.2018 17:00:00 17,0 13,6 9 5 E 1020,9 10
18.04.2018 16:00:00 18,0 14,0 15 8 E - 10
18.04.2018 15:00:00 18,0 14,0 9 5 E - 10
18.04.2018 14:00:00 18,3 13,9 11 6 ESE 1020,9 10
18.04.2018 13:00:00 18,0 14,0 11 6 SE - 10
18.04.2018 12:00:00 18,0 13,0 9 5 SE - 10
18.04.2018 11:00:00 17,0 14,0 13 7 SE 1021,8 10
18.04.2018 10:00:00 17,0 14,0 15 8 ESE - 10
18.04.2018 09:00:00 16,0 15,0 13 7 ENE - 10
18.04.2018 08:00:00 15,9 14,9 16 9 NNE 1020,2 8
18.04.2018 07:00:00 15,0 14,0 9 5 N - 10
18.04.2018 06:00:00 13,0 12,0 8 4 N - 10
18.04.2018 05:00:00 13,1 12,7 9 5 N 1019,3 10
18.04.2018 04:00:00 14,0 13,0 5 3 WNW - 10
18.04.2018 03:00:00 14,0 13,0 4 2 NNW - 10
18.04.2018 02:00:00 14,4 12,7 8 4 NNW 1020,0 10
18.04.2018 01:00:00 15,0 13,0 8 4 WNW - 10
18.04.2018 00:00:00 15,0 13,0 11 6 NNW - 10
17.04.2018 23:00:00 14,4 12,7 11 6 NNW 1020,1 10
17.04.2018 22:00:00 15,0 13,0 11 6 NNW - 10
17.04.2018 21:00:00 15,0 13,0 11 6 NNW - 10
17.04.2018 20:00:00 15,6 13,6 9 5 NNW 1019,2 10
17.04.2018 19:00:00 17,0 13,0 16 9 NNW - 10
17.04.2018 18:00:00 18,0 13,0 15 8 WNW - 10
17.04.2018 17:00:00 20,8 11,4 21 11 NW 1018,5 10
17.04.2018 16:00:00 20,0 12,0 18 10 NNW - 10
17.04.2018 15:00:00 21,0 12,0 13 7 WNW - 10
17.04.2018 14:00:00 21,2 13,9 9 5 N 1019,4 10
17.04.2018 13:00:00 20,0 14,0 11 6 N - 10
17.04.2018 12:00:00 20,0 14,0 11 6 N - 10
17.04.2018 11:00:00 19,2 13,9 18 10 N 1020,0 10
17.04.2018 10:00:00 19,0 13,0 16 9 NNW - 10
17.04.2018 09:00:00 17,0 14,0 18 10 N - 10
17.04.2018 08:00:00 15,9 14,0 22 12 NW 1018,9 10
17.04.2018 07:00:00 15,0 13,0 15 8 NW - 10
17.04.2018 06:00:00 14,0 12,0 15 8 NNW - 10
17.04.2018 05:00:00 14,3 12,4 13 7 NW 1017,7 10
17.04.2018 04:00:00 14,0 13,0 13 7 NW - 9
17.04.2018 03:00:00 14,0 13,0 16 9 NW - 9
17.04.2018 02:00:00 14,4 12,5 16 9 NW 1017,9 10
17.04.2018 01:00:00 15,0 13,0 18 10 NW - 10
17.04.2018 00:00:00 15,0 13,0 15 8 WNW - 9
16.04.2018 23:00:00 14,9 12,3 15 8 WNW 1018,3 10
16.04.2018 22:00:00 15,0 13,0 16 9 NW - 9
16.04.2018 21:00:00 15,0 13,0 21 11 WNW - 8
16.04.2018 20:00:00 15,1 13,0 21 11 WNW 1016,1 9
16.04.2018 19:00:00 16,0 13,0 26 14 WNW - 10
16.04.2018 18:00:00 17,0 13,0 34 18 NW - 10
16.04.2018 17:00:00 17,3 12,6 26 14 WNW 1015,1 10
16.04.2018 16:00:00 18,0 13,0 34 18 WNW - 10
16.04.2018 15:00:00 19,0 13,0 31 17 NNW - 10
16.04.2018 14:00:00 19,2 12,9 31 17 NW 1015,4 10
16.04.2018 13:00:00 19,0 13,0 35 19 NW - 10
16.04.2018 12:00:00 18,0 14,0 31 17 WNW - 10
16.04.2018 11:00:00 18,0 13,4 34 18 WNW 1015,0 10
16.04.2018 10:00:00 17,0 14,0 21 11 WNW - 10
16.04.2018 09:00:00 16,0 13,0 21 11 WNW - 10
16.04.2018 08:00:00 15,7 13,4 22 12 WNW 1013,1 10
16.04.2018 07:00:00 15,0 13,0 24 13 WNW - 10
16.04.2018 06:00:00 16,0 13,0 21 11 WNW - 8
16.04.2018 05:00:00 15,4 13,7 28 15 WNW 1011,8 7
16.04.2018 04:00:00 15,0 14,0 21 11 WNW - 6
16.04.2018 03:00:00 15,0 14,0 26 14 WNW - 6
16.04.2018 02:00:00 15,3 13,4 13 7 W 1011,1 6
16.04.2018 01:00:00 16,0 14,0 15 8 WSW - 6
16.04.2018 00:00:00 15,0 13,0 13 7 WSW - 5
15.04.2018 23:00:00 15,3 13,6 9 5 WSW 1010,6 2,0
15.04.2018 22:00:00 15,0 14,0 11 6 WSW - 1,5
15.04.2018 21:00:00 16,0 14,0 13 7 WSW - 1,5
15.04.2018 20:00:00 16,3 13,2 9 5 WSW 1008,2 1,5
15.04.2018 19:00:00 17,0 12,0 13 7 WSW - 3,5
15.04.2018 18:00:00 18,0 12,0 21 11 WSW - 4,0
15.04.2018 17:00:00 18,6 13,2 24 13 W 1006,9 4,0
15.04.2018 16:00:00 20,0 11,0 24 13 W - 3,0
15.04.2018 15:00:00 20,0 12,0 24 13 W - 3,0
15.04.2018 14:00:00 20,6 14,0 22 12 WSW 1006,9 3,0
15.04.2018 13:00:00 21,0 14,0 18 10 W - 4,0
15.04.2018 12:00:00 22,0 14,0 11 6 WSW - 4,5
15.04.2018 11:00:00 20,8 16,0 13 7 W 1006,6 4,5
15.04.2018 10:00:00 19,0 16,0 8 4 NE - 4,0
15.04.2018 09:00:00 18,0 16,0 5 3 WNW - 4,0
15.04.2018 08:00:00 16,5 15,8 9 5 NNE 1005,7 3,5
15.04.2018 07:00:00 16,0 16,0 8 4 NNE - 3,5
15.04.2018 06:00:00 16,0 16,0 11 6 NE - 3,5
15.04.2018 05:00:00 16,1 15,5 18 10 NE 1005,0 3,5
15.04.2018 04:00:00 16,0 16,0 15 8 NE - 4,0
15.04.2018 03:00:00 16,0 15,0 16 9 NE - 4,0
15.04.2018 02:00:00 16,6 15,1 22 12 ENE 1005,8 5
15.04.2018 01:00:00 17,0 15,0 16 9 ENE - 5
15.04.2018 00:00:00 17,0 15,0 15 8 ENE - 5
14.04.2018 23:00:00 17,2 15,1 15 8 E 1006,7 5
14.04.2018 22:00:00 17,0 15,0 16 9 E - 6

tt = Température de l'air
td = dewpoint
ff = Vitesse du vent
dd = Direction du vent
ppp = reduced air pressure
vv = visibility

stations d'obs. à proximité